Key Lake Airport
CYKJ : now visible

Airfield :











YOU CAN JOIN US ON...

 
LOGIN :

Register | Disclaimer

   EN    FR    IT 

 









Legend :    VFR   Marginal VFR   IFR   Intensive IFR   Very Intensive IFR
Visi :
Ceiling :
>= 8 km
>= 3000ft
5 to 8 km
1000 to 3000 ft
1500m to 5 km
500 to 1000 ft
800 to 1500m
200 to 500 ft
< 800m
< 200 ft
Symbols :   Thunderstorms  Fog  Heavy snow  Heavy precipitations  Wind > 20 kt






- Airport Elevation : 1679 ft
- IATA code : YKJ


CYKJ - Key Lake

CURRENT METAR :
  • 042200Z AUTO 28005KT 9SM FEW090 SCT140 00/M03 A2986 RMK SLP152

EXPIRED METARs :
  • 042100Z AUTO 27005KT 9SM SCT049 OVC075 01/M02 A2985 RMK SLP150
  • 042048Z AUTO 26005KT 9SM BKN041 BKN050 OVC070 00/M02 A2986 RMK SLP151
  • 042028Z AUTO 26004KT 9SM -SN BKN040 BKN050 OVC060 M00/M02 A2986 RMK SLP155

TAF TAF CYKJ
Valid from the 04 at 19:00 until the 05 at 00:00 UTC


041838Z 0419/0424 27006KT P6SM BKN080 RMK FCST BASED ON AUTO OBS. NXT FCST WILL BE ISSUED AT 050945Z
CZEG FIR / North America



MET'MAP, your aeronautical weather chart ! - Copyright ORBIFLY December 2007 - Disclaimer

ORBIFLY MET'MAP TEAM :

Programming & Development : Alexandra Zaïnal
Concept & original design : Baudouin d'Aumeries
Assistance for programming : Marc-Olivier Méhu
Technical & hardware support : Manuel Goepfert

Contact : metmap@orbifly.com




SOURCES & CREDITS :

   NOAA       Earth
Advisory